This is the latest recevied weather packets stored in our database for station/object WX2NJ-13. If no packets are shown the sender has not sent any weather packets the latest 10 day(s).
| Time | Temp. | Humidity | Pressure | Rain* | Wind** | Luminosity | Snow |
|---|---|---|---|---|---|---|---|
| 1777843737 | 16.67° C | 30% | 1012.3 hPa | 0 mm | 0 m/s | - | - |
| 1777843439 | 16.67° C | 29% | 1012.3 hPa | 0 mm | 0.45 m/s, 330° | - | - |
| 1777843140 | 17.22° C | 29% | 1012.2 hPa | 0 mm | 0 m/s | - | - |
| 1777842839 | 17.22° C | 28% | 1012.2 hPa | 0 mm | 1.79 m/s, 222° | - | - |
| 1777842540 | 17.22° C | 29% | 1012.3 hPa | 0 mm | 0.45 m/s, 215° | - | - |
| 1777842242 | 17.22° C | 29% | 1012.3 hPa | 0 mm | 0.89 m/s, 297° | - | - |
| 1777841940 | 17.22° C | 29% | 1012.2 hPa | 0 mm | 1.34 m/s, 194° | - | - |
| 1777841641 | 17.22° C | 27% | 1012.2 hPa | 0 mm | 1.79 m/s, 269° | - | - |
| 1777841343 | 17.22° C | 28% | 1012.2 hPa | 0 mm | 0.89 m/s, 259° | - | - |
| 1777841041 | 17.22° C | 29% | 1012.1 hPa | 0 mm | 0.45 m/s, 245° | - | - |
| 1777840743 | 17.22° C | 29% | 1012.1 hPa | 0 mm | 1.34 m/s, 194° | - | - |
| 1777840444 | 17.22° C | 30% | 1012.1 hPa | 0 mm | 0.45 m/s, 105° | - | - |
| 1777840143 | 17.22° C | 30% | 1012.1 hPa | 0 mm | 1.34 m/s, 293° | - | - |
| 1777839844 | 17.22° C | 28% | 1012.1 hPa | 0 mm | 0.89 m/s, 169° | - | - |
| 1777839545 | 17.22° C | 30% | 1012.1 hPa | 0 mm | 0.45 m/s, 260° | - | - |
| 1777839244 | 17.22° C | 29% | 1012 hPa | 0 mm | 1.34 m/s, 276° | - | - |
| 1777838946 | 17.22° C | 30% | 1012.2 hPa | 0 mm | 0.45 m/s, 280° | - | - |
| 1777838647 | 17.22° C | 32% | 1012.2 hPa | 0 mm | 0 m/s | - | - |
| 1777838346 | 16.67° C | 32% | 1012.4 hPa | 0 mm | 1.79 m/s, 176° | - | - |
| 1777838047 | 16.67° C | 33% | 1012.3 hPa | 0 mm | 1.34 m/s, 326° | - | - |
| 1777837748 | 17.22° C | 30% | 1012.4 hPa | 0 mm | 0.89 m/s, 94° | - | - |
| 1777837447 | 17.22° C | 32% | 1012.4 hPa | 0 mm | 0 m/s | - | - |
| 1777837148 | 17.22° C | 31% | 1012.5 hPa | 0 mm | 0.45 m/s, 193° | - | - |
| 1777836850 | 17.22° C | 33% | 1012.5 hPa | 0 mm | 0.89 m/s, 270° | - | - |
| 1777836548 | 16.67° C | 34% | 1012.6 hPa | 0 mm | 0.45 m/s, 186° | - | - |
* Rain latest hour (hover to see other rain measurements)
** Current wind speed in m/s (hover to see current wind gust speed)